Regional Weather Roundup
Issued by NWS Mobile, AL

Home | Current Version | Previous Version | Text Only | Print | Product List | Glossary On
Versions: 1 2 3 4 5 6 7 8 9 10 11 12 13 14 15 16 17 18 19 20 21 22 23 24 25 26 27 28 29 30 31 32 33 34 35 36 37 38 39 40 41 42 43 44 45 46 47 48 49 50
000
ASUS44 KMOB 302312
RWRMOB
REGIONAL WEATHER ROUNDUP
NATIONAL WEATHER SERVICE MOBILE AL
600 PM CDT MON MAY 30 2016

NOTE: "FAIR" INDICATES FEW OR NO CLOUDS BELOW 12,000 FEET WITH NO
      SIGNIFICANT WEATHER AND/OR OBSTRUCTIONS TO VISIBILITY.

  * THESE STATIONS ARE PART OF THE UNIVERSITY OF SOUTH ALABAMA
    MESONET AND ARE NOT UNDER NWS OR FAA QUALITY CONTROL.

ALZ061>064-310000-
COASTAL ALABAMA

CITY           SKY/WX    TMP DP  RH WIND       PRES   REMARKS
MOBILE REG APT PTSUNNY   81  68  64 N9        29.97R THUNDER
BROOKLEY FIELD MOSUNNY   85  73  67 SW8       29.96R
USA CAMPUS*    NOT AVBL
DOG RIVER*     NOT AVBL


CITY           SKY/WX    TMP DP  RH WIND       PRES   REMARKS
MOUNT VERNON*  NOT AVBL
SARALAND*      NOT AVBL
BAY MINETTE*   NOT AVBL
LOXLEY*        NOT AVBL
ROBERTSDALE*   NOT AVBL
FAIRHOPE*      NOT AVBL
ELBERTA*       NOT AVBL
FOLEY*         NOT AVBL
GRAND BAY*     NOT AVBL
DAUPHIN ISLND* NOT AVBL
BON SCOUR NWR* NOT AVBL
GULF SHORES    PTSUNNY   85  73  66 SW13G21   29.94S

$$

ALZ051>060-310000-
INTERIOR SOUTHWEST AND SOUTH CENTRAL ALABAMA

CITY           SKY/WX    TMP DP  RH WIND       PRES   REMARKS
GREENVILLE     SUNNY     93  59  31 N6        29.92F
EVERGREEN      SUNNY     91  63  39 VRB6      29.91F
CASTLEBERRY*   NOT AVBL
ATMORE*        NOT AVBL
DIXIE*         NOT AVBL
ANDALUSIA/OPP  SUNNY     96  63  33 NW3       29.91S HX  97
ANDALUSIA*     NOT AVBL
FLORALA APT    MOSUNNY   87  66  49 SW8       29.93F
FLORALA*       NOT AVBL

$$

FLZ001>006-310000-
WESTERN FLORIDA PANHANDLE

CITY           SKY/WX    TMP DP  RH WIND       PRES   REMARKS
PENSACOLA      MOSUNNY   82  63  52 W7        29.92F
NAS PENSACOLA  NOT AVBL
MILTON         MOSUNNY   83  68  60 W9        29.92F
WHTNG S FIELD  NOT AVBL


CITY           SKY/WX    TMP DP  RH WIND       PRES   REMARKS
WALNUT HILL*   NOT AVBL
JAY*           NOT AVBL
DUKE FIELD     MOSUNNY   87  67  52 SW10      29.91F
CRESTVIEW      SUNNY     87  67  51 SW9       29.93F
VALPARAISO     PTSUNNY   83  71  66 W3        29.92F
DESTIN         CLOUDY    85  74  69 W9        29.92F

$$

MSZ076-079-310000-
INTERIOR SOUTHEAST MISSISSIPPI

CITY           SKY/WX    TMP DP  RH WIND       PRES   REMARKS
LEAKESVILLE*   NOT AVBL
AGRICOLA*      NOT AVBL

$$

MARINE OBSERVATIONS

STATION/POSITION TIME  TEMP    WIND        PRES    WAVE
                       AIR SEA DIR/SP/G            HT/PER
                 (UTC) (F)     (DEG/KT/KT) (MB)    (FT/S)
PASCAGOULA       2200   85                   N/A
PETIT BOIS ISLND 2200   82                   N/A
GRAND BAY        2100   84     220/ 10     1016.0S
KATRINA CUT      2200   82     230/ 12     1014.6F
CEDAR POINT      2200   82     230/ 11     1013.9F
E DAUPHIN ISLAND 2200   82     220/  8/ 10 1013.9F
MIDDLE BAY LIGHT 2200   83     200/ 11     1014.2F
USCG MOBILE BAY  2200   84 80                N/A
STATE DOCKS      2200   84 81                N/A
MEAHER PARK      2200   84     180/ 11     1012.9F
WEEKS BAY        2100   89                   N/A
FORT MORGAN      2200   83                   N/A
12 S ORANGE BCH  2250   82 82              1013.1F   1
PENSACOLA BAY    2200      81                N/A
64 S DAUPHIN ISL 2300   81 82  230/  6/  8 1014.0F

$$

SELECTED LOCATIONS ACROSS THE REGION

CITY           SKY/WX    TMP DP  RH WIND       PRES   REMARKS
NEW ORLEANS    PTSUNNY   79  70  74 CALM      29.94R
GULFPORT       LGT RAIN  78  71  79 SE29G36   29.95S
PASCAGOULA AP  CLOUDY    75  69  81 NW3       29.94F
PASCAGOULA*    NOT AVBL
HATTIESBURG    CLOUDY    88  64  44 S6G16     29.92F
LAUREL         SUNNY     90  61  37 NE6       29.94F
MERIDIAN       CLOUDY    91  65  41 E5        29.93F
JACKSON        MOSUNNY   90  62  39 N8        29.92F
MONTGOMERY     PTSUNNY   87  67  51 VRB5      29.92F
TROY           SUNNY     89  64  43 N8        29.92F
KINSTON*       NOT AVBL
GENEVA*        NOT AVBL
ASHFORD*       NOT AVBL
DOTHAN         PTSUNNY   82  62  50 S3        29.95S
PANAMA CITY    MOSUNNY   83  73  72 SW8       29.93R

$$




USA.gov is the U.S. government's official web portal to all federal, state and local government web resources and services.